Saranac Lake, NY

4:49 PM EDT on March 30, 2017 (GMT -0400)
Adirondack Regional

Weather History for KSLK - September, 2013

Change the Weather History Date:

Monday, September 16, 2013

  Actual Average Record
Temperature  
Mean Temperature 40 °F 54 °F  
Max Temperature 51 °F 66 °F 82 °F (1991)
Min Temperature 29 °F 41 °F 26 °F (1948)
Degree Days  
Heating Degree Days 25 11  
Month to date heating degree days 175 143  
Since 1 July heating degree days 388 383  
Cooling Degree Days 0 0  
Month to date cooling degree days 16 7  
Year to date cooling degree days 187 114  
Moisture  
Dew Point 42 °F    
Average Humidity 78    
Maximum Humidity 100    
Minimum Humidity 56    
Precipitation  
Precipitation 0.14 in 0.10 in 2.41 in (1991)
Month to date precipitation 3.22 1.82  
Year to date precipitation 32.10 26.36  
Sea Level Pressure  
Sea Level Pressure 30.14 in    
Wind  
Wind Speed 4 mph (WNW)    
Max Wind Speed 22 mph    
Max Gust Speed 29 mph    
Visibility 8 miles    
Events Rain    
T = Trace of Precipitation, MM = Missing Value Source: NWS Daily Summary

Daily Weather History Graph

Daily Weather History Graph

Search for Another Location

Airport or City:

Trip Planner

Search our weather history database for the weather conditions in past years. The results will help you decide how hot, cold, wet, or windy it might be!

Date:

Astronomy

Sep. 16, 2013 Rise Set
Actual Time 6:37 AM EDT 7:05 PM EDT
Civil Twilight 6:08 AM EDT 7:34 PM EDT
Nautical Twilight 5:33 AM EDT 8:08 PM EDT
Astronomical Twilight 4:58 AM EDT 8:43 PM EDT
Moon 5:16 PM EDT (9/16) 3:14 AM EDT (9/16)
Length of Visible Light 13h 26m
Length of Day
12h 27m
Waxing Gibbous, 90% of the Moon is Illuminated
Sep 16
Waxing Gibbous
Sep 19
Full
Sep 26
Last Quarter
Oct 4
New
Oct 11
First Quarter

Hourly Weather History & Observations

Time (EDT) Temp. Windchill Dew Point Humidity Pressure Visibility Wind Dir Wind Speed Gust Speed Precip Events Conditions
12:51 AM 50.0 °F - 48.9 °F 96% 30.04 in 8.0 mi SW 3.5 mph - 0.03 in Rain Light Rain
12:58 AM 50.0 °F - 48.2 °F 94% 30.03 in 8.0 mi WSW 3.5 mph - 0.00 in Rain Light Rain
1:06 AM 50.0 °F - 48.2 °F 94% 30.03 in 8.0 mi SW 4.6 mph - 0.00 in Rain Light Rain
1:35 AM 50.0 °F - 48.2 °F 94% 30.04 in 6.0 mi WSW 4.6 mph - 0.02 in Rain Light Rain
1:51 AM 50.0 °F - 48.9 °F 96% 30.05 in 5.0 mi WSW 4.6 mph - 0.04 in Rain Light Rain
2:08 AM 50.0 °F - 48.2 °F 94% 30.04 in 5.0 mi Variable 3.5 mph - 0.02 in Rain Rain
2:51 AM 50.0 °F - 48.9 °F 96% 30.03 in 7.0 mi WSW 3.5 mph - 0.06 in Rain Light Rain
3:06 AM 50.0 °F - 48.2 °F 94% 30.03 in 6.0 mi WSW 4.6 mph - 0.01 in Rain Light Rain
3:51 AM 48.9 °F - 48.0 °F 97% 30.03 in 10.0 mi WSW 5.8 mph - 0.01 in   Overcast
4:26 AM 48.2 °F - 48.2 °F 100% 30.02 in 10.0 mi WSW 4.6 mph - 0.00 in   Overcast
4:37 AM 48.2 °F - 48.2 °F 100% 30.01 in 10.0 mi WSW 4.6 mph - 0.00 in   Overcast
4:51 AM 48.9 °F - 48.0 °F 97% 30.02 in 10.0 mi WSW 3.5 mph - 0.00 in   Overcast
5:51 AM 48.9 °F - 48.0 °F 97% 30.04 in 7.0 mi WSW 4.6 mph - N/A   Overcast
6:18 AM 48.2 °F - 48.2 °F 100% 30.03 in 4.0 mi WSW 4.6 mph - 0.01 in   Overcast
6:51 AM 48.9 °F - 48.0 °F 97% 30.05 in 7.0 mi WSW 5.8 mph - 0.02 in   Overcast
7:19 AM 48.2 °F - 46.4 °F 93% 30.06 in 1.8 mi NNW 9.2 mph - 0.01 in Rain Light Rain
7:24 AM 48.2 °F - 46.4 °F 93% 30.06 in 2.0 mi North 5.8 mph - 0.01 in Rain Light Rain
7:27 AM 48.2 °F - 46.4 °F 93% 30.06 in 3.0 mi NNW 4.6 mph - 0.01 in Rain Light Rain
7:51 AM 46.9 °F - 46.0 °F 97% 30.09 in 4.0 mi Variable 3.5 mph - 0.01 in   Overcast
8:51 AM 46.0 °F 43.1 °F 44.1 °F 93% 30.11 in 10.0 mi North 5.8 mph - N/A   Overcast
9:47 AM 44.6 °F 40.2 °F 42.8 °F 93% 30.13 in 10.0 mi North 8.1 mph - N/A   Overcast
9:51 AM 44.1 °F 40.1 °F 42.1 °F 93% 30.15 in 10.0 mi NNE 6.9 mph - N/A   Overcast
10:05 AM 44.6 °F 39.7 °F 42.8 °F 93% 30.13 in 10.0 mi NNE 9.2 mph - N/A   Overcast
10:51 AM 44.1 °F 40.8 °F 41.0 °F 89% 30.17 in 10.0 mi North 5.8 mph - N/A   Overcast
11:47 AM 46.4 °F 44.3 °F 39.2 °F 76% 30.16 in 10.0 mi Variable 4.6 mph - N/A   Overcast
11:51 AM 46.0 °F 43.9 °F 41.0 °F 83% 30.18 in 10.0 mi NNE 4.6 mph - N/A   Overcast
12:51 PM 48.0 °F - 37.9 °F 68% 30.18 in 10.0 mi North 5.8 mph - N/A   Overcast
1:51 PM 46.9 °F - 37.0 °F 68% 30.19 in 10.0 mi NNE 9.2 mph 18.4 mph N/A   Overcast
2:51 PM 48.0 °F - 37.0 °F 66% 30.20 in 10.0 mi Variable 4.6 mph - N/A   Overcast
3:05 PM 48.2 °F - 35.6 °F 62% 30.18 in 10.0 mi WNW 5.8 mph - N/A   Overcast
3:29 PM 48.2 °F - 37.4 °F 66% 30.18 in 10.0 mi North 6.9 mph - N/A   Overcast
3:37 PM 48.2 °F - 35.6 °F 62% 30.19 in 10.0 mi North 9.2 mph - N/A   Mostly Cloudy
3:51 PM 50.0 °F - 36.0 °F 59% 30.21 in 10.0 mi NW 8.1 mph - N/A   Scattered Clouds
4:51 PM 48.9 °F - 36.0 °F 61% 30.22 in 10.0 mi Variable 4.6 mph - N/A   Mostly Cloudy
5:51 PM 46.0 °F 41.9 °F 34.0 °F 63% 30.24 in 10.0 mi North 8.1 mph - N/A   Mostly Cloudy
6:51 PM 44.1 °F 41.5 °F 34.0 °F 68% 30.27 in 10.0 mi Variable 4.6 mph - N/A   Mostly Cloudy
7:51 PM 37.0 °F - 34.0 °F 89% 30.30 in 10.0 mi Calm Calm - N/A   Clear
8:51 PM 33.1 °F - 32.0 °F 96% 30.32 in 10.0 mi Calm Calm - N/A   Clear
9:51 PM 32.0 °F - 30.0 °F 92% 30.35 in 10.0 mi Calm Calm - N/A   Clear
10:51 PM 30.0 °F - 28.9 °F 96% 30.37 in 10.0 mi Calm Calm - N/A   Clear
11:51 PM 28.9 °F - 28.0 °F 96% 30.38 in 10.0 mi Calm Calm - N/A   Clear